User: anonymous   Login
Location: Brno
(49.2000°N, 16.6330°E)
Time: 10:42:30
(UTC+01:00)
Language:

Iridium 2 - Orbit

View from above orbital plane
View from above orbital plane
View from above satellite
View from above satellite

Ground track
Ground track

The orbit data is extracted from the following two-line orbital elements,

1 25527U 98066A   18049.58477310  .00000933  00000-0  45091-4 0  9995
2 25527  85.5272 246.7182 0006678 263.3651  96.6829 15.17188730 55220
Epoch (UTC): 18 February 2018 14:02:04
Eccentricity: 0.0006678
inclination: 85.5272°
perigee height: 510 km
apogee height: 519 km
right ascension of ascending node: 246.7182°
argument of perigee: 263.3651°
revolutions per day: 15.17188730
mean anomaly at epoch: 96.6829°
orbit number at epoch: 5522

The dashed part of the orbit path shows where the satellite is in the earth's shadow,  

DLR